sat.trackr.live / text

‹ back to catalog

STARLINK-31218

NORAD 58895 · 2024-020V

PAYLOAD ACTIVE UNKNOWN

§ Identity

Operator
Country
US
Launch date
2024-01-29
Launch site
AFWTR
Launch vehicle
Mass (kg)
RCS (m²)

Purposes: comms

External: N2YO · Heavens-Above · Gunter

§ Orbital elements

Epoch: 2026-09-20T22:22:19.244352Z

Period
94.01 min
Inclination
53.1596°
Eccentricity
0.0001256
Mean motion
15.31707067 rev/d
Perigee alt
469.9 km
Apogee alt
471.6 km
Semi-major
6,848.9 km
B*
1.6377e-5
RAAN
134.1177°
Arg perigee
91.8579°
Mean anomaly
268.2566°
Rev number
14,798

§ Raw data

STARLINK-312181 58895U 24020V   26263.93216718  .00000143  00000+0  16377-4 0  99942 58895  53.1596 134.1177 0001256  91.8579 268.2566 15.31707067147984

JSON: /api/v1/satellites/58895 · /tle

For live sub-satellite position, see the globe view (requires WebGL).

§ Visibility from observer

Set your observer location to see the next 7 days of passes ≥ 10°. The values pass through the URL so the page stays shareable.

No JS? Fill the form by hand. The geolocation button needs JavaScript.